Clarksville, TX

11:51 AM CST on February 28, 2017 (GMT -0600)
Clarksville

Weather History for KLBR - January, 2014

Change the Weather History Date:

Monday, January 20, 2014

  Actual Average (KPRX) Record (KPRX)
Temperature  
Mean Temperature 54 °F -  
Max Temperature 72 °F 52 °F 75 °F (2012)
Min Temperature 36 °F 33 °F 17 °F (2008)
Degree Days  
Heating Degree Days 11    
Growing Degree Days 4 (Base 50)    
Moisture  
Dew Point 30 °F    
Average Humidity 42    
Maximum Humidity 66    
Minimum Humidity 27    
Precipitation  
Precipitation 0.00 in - - ()
Sea Level Pressure  
Sea Level Pressure 29.97 in    
Wind  
Wind Speed 2 mph (WNW)    
Max Wind Speed 17 mph    
Max Gust Speed 26 mph    
Visibility 9 miles    
Events      
Averages and records for this station are not official NWS values.
T = Trace of Precipitation, MM = Missing Value Source: NWS Daily Summary

Daily Weather History Graph

Daily Weather History Graph

Search for Another Location

Airport or City:

Trip Planner

Search our weather history database for the weather conditions in past years. The results will help you decide how hot, cold, wet, or windy it might be!

Date:

Astronomy

Jan. 20, 2014 Rise Set
Actual Time 7:23 AM CST 5:39 PM CST
Civil Twilight 6:56 AM CST 6:06 PM CST
Nautical Twilight 6:26 AM CST 6:37 PM CST
Astronomical Twilight 5:56 AM CST 7:06 PM CST
Moon 10:00 PM CST (1/20) 9:37 AM CST (1/20)
Length of Visible Light 11h 10m
Length of Day
10h 16m
Waning Gibbous, 82% of the Moon is Illuminated
Jan 20
Waning Gibbous
Jan 23
Last Quarter
Jan 30
New
Feb 6
First Quarter
Feb 14
Full

Hourly Weather History & Observations

Time (CST) Temp. Dew Point Humidity Pressure Visibility Wind Dir Wind Speed Gust Speed Precip Events Conditions
12:15 AM 42.1 °F 25.0 °F 51% 30.06 in 10.0 mi Calm Calm - N/A   Clear
12:35 AM 40.6 °F 25.7 °F 55% 30.05 in 10.0 mi Calm Calm - N/A   Clear
12:55 AM 41.9 °F 24.8 °F 51% 30.03 in 10.0 mi Calm Calm - N/A   Clear
1:15 AM 41.9 °F 25.2 °F 52% 30.03 in 10.0 mi Calm Calm - N/A   Clear
1:35 AM 41.0 °F 25.3 °F 54% 30.02 in 7.0 mi Calm Calm - N/A   Clear
1:55 AM 39.4 °F 25.2 °F 57% 30.01 in 7.0 mi Calm Calm - N/A   Clear
2:15 AM 39.2 °F 25.5 °F 58% 30.01 in 10.0 mi Calm Calm - N/A   Clear
2:35 AM 36.5 °F 25.7 °F 65% 30.00 in 10.0 mi Calm Calm - N/A   Clear
2:55 AM 37.4 °F 25.5 °F 62% 29.99 in 10.0 mi Calm Calm - N/A   Clear
3:15 AM 36.1 °F 25.7 °F 66% 29.99 in 10.0 mi Calm Calm - N/A   Clear
3:35 AM 37.9 °F 25.5 °F 61% 29.99 in 10.0 mi Calm Calm - N/A   Clear
3:55 AM 38.5 °F 25.3 °F 59% 29.98 in 10.0 mi Calm Calm - N/A   Clear
4:15 AM 39.4 °F 25.3 °F 57% 29.97 in 10.0 mi Calm Calm - N/A   Clear
4:35 AM 39.4 °F 25.5 °F 58% 29.97 in 10.0 mi Calm Calm - N/A   Clear
4:55 AM 39.2 °F 25.3 °F 58% 29.97 in 10.0 mi Calm Calm - N/A   Clear
5:15 AM 39.4 °F 25.3 °F 57% 29.97 in 10.0 mi Calm Calm - N/A   Clear
5:35 AM 37.9 °F 25.5 °F 61% 29.96 in 10.0 mi Calm Calm - N/A   Clear
5:55 AM 39.9 °F 25.3 °F 56% 29.95 in 10.0 mi Calm Calm - N/A   Clear
6:15 AM 39.7 °F 25.7 °F 57% 29.95 in 7.0 mi Calm Calm - N/A   Clear
6:35 AM 39.9 °F 25.7 °F 57% 29.95 in 10.0 mi Calm Calm - N/A   Clear
6:55 AM 39.7 °F 25.7 °F 57% 29.95 in 10.0 mi Calm Calm - N/A   Clear
7:15 AM 39.7 °F 26.1 °F 58% 29.95 in 10.0 mi Calm Calm - N/A   Clear
7:35 AM 39.2 °F 27.0 °F 62% 29.95 in 10.0 mi Calm Calm - N/A   Clear
7:55 AM 41.7 °F 27.3 °F 57% 29.96 in 7.0 mi Calm Calm - N/A   Clear
8:15 AM 43.9 °F 28.9 °F 56% 29.96 in 10.0 mi Calm Calm - N/A   Clear
8:35 AM 46.6 °F 29.1 °F 51% 29.96 in 7.0 mi SSE 3.5 mph - N/A   Clear
8:55 AM 48.4 °F 31.1 °F 51% 29.96 in 10.0 mi Calm Calm - N/A   Clear
9:15 AM 50.5 °F 30.9 °F 47% 29.97 in 10.0 mi Calm Calm - N/A   Clear
9:35 AM 52.7 °F 32.0 °F 45% 29.97 in 10.0 mi Calm Calm - N/A   Clear
9:55 AM 54.3 °F 33.1 °F 45% 29.97 in 7.0 mi Calm Calm - N/A   Clear
10:15 AM 58.5 °F 35.1 °F 42% 29.97 in 10.0 mi Calm Calm - N/A   Clear
10:35 AM 62.1 °F 36.9 °F 39% 29.96 in 10.0 mi Calm Calm - N/A   Clear
10:55 AM 64.4 °F 36.7 °F 36% 29.96 in 10.0 mi South 5.8 mph - N/A   Clear
11:15 AM 66.9 °F 37.0 °F 33% 29.95 in 7.0 mi SSW 4.6 mph - N/A   Clear
11:35 AM 66.6 °F 36.7 °F 33% 29.93 in 10.0 mi SSW 10.4 mph - N/A   Clear
11:55 AM 68.2 °F 37.4 °F 32% 29.92 in 10.0 mi SSW 5.8 mph - N/A   Clear
12:15 PM 68.5 °F 37.4 °F 32% 29.91 in 7.0 mi SSW 4.6 mph - N/A   Clear
12:35 PM 69.4 °F 36.9 °F 30% 29.89 in 7.0 mi SW 5.8 mph - N/A   Clear
12:55 PM 70.0 °F 37.2 °F 30% 29.88 in 7.0 mi SSW 6.9 mph - N/A   Clear
1:15 PM 70.7 °F 37.8 °F 30% 29.86 in 10.0 mi SSW 4.6 mph - N/A   Clear
1:35 PM 71.2 °F 38.1 °F 30% 29.85 in 10.0 mi SSE 4.6 mph - N/A   Clear
1:55 PM 72.3 °F 37.4 °F 28% 29.85 in 10.0 mi Calm Calm - N/A   Clear
2:15 PM 72.7 °F 37.6 °F 28% 29.85 in 10.0 mi Calm Calm - N/A   Clear
2:35 PM 72.5 °F 37.2 °F 28% 29.85 in 10.0 mi West 3.5 mph - N/A   Clear
2:55 PM 72.7 °F 37.2 °F 27% 29.84 in 10.0 mi Calm Calm - N/A   Clear
3:15 PM 72.3 °F 36.9 °F 27% 29.85 in 7.0 mi West 5.8 mph - N/A   Clear
3:35 PM 72.0 °F 36.9 °F 28% 29.86 in 7.0 mi West 4.6 mph - N/A   Clear
3:55 PM 71.6 °F 37.0 °F 28% 29.86 in 7.0 mi West 4.6 mph - N/A   Clear
4:15 PM 70.9 °F 36.7 °F 29% 29.87 in 7.0 mi WSW 4.6 mph - N/A   Clear
4:35 PM 70.0 °F 36.0 °F 29% 29.88 in 10.0 mi WSW 4.6 mph - N/A   Clear
4:55 PM 69.1 °F 36.9 °F 31% 29.89 in 10.0 mi Calm Calm - N/A   Clear
5:15 PM 67.5 °F 36.5 °F 32% 29.91 in 10.0 mi Calm Calm - N/A   Clear
5:35 PM 65.8 °F 35.6 °F 33% 29.93 in 10.0 mi WNW 4.6 mph - N/A   Clear
5:55 PM 64.2 °F 35.2 °F 34% 29.95 in 10.0 mi Calm Calm - N/A   Clear
6:15 PM 62.6 °F 34.7 °F 35% 29.96 in 10.0 mi NW 3.5 mph - N/A   Clear
6:35 PM 61.9 °F 35.1 °F 37% 29.97 in 10.0 mi NW 4.6 mph - N/A   Clear
6:55 PM 60.6 °F 36.1 °F 40% 29.99 in 10.0 mi NW 5.8 mph - N/A   Clear
7:15 PM 59.7 °F 36.0 °F 41% 30.00 in 10.0 mi NW 5.8 mph - N/A   Clear
7:35 PM 60.6 °F 32.5 °F 35% 30.01 in 10.0 mi NNW 8.1 mph 17.3 mph N/A   Clear
7:55 PM 59.9 °F 31.1 °F 34% 30.03 in 10.0 mi NNW 10.4 mph - N/A   Clear
8:15 PM 59.2 °F 29.5 °F 32% 30.04 in 10.0 mi NW 12.7 mph 17.3 mph N/A   Clear
8:35 PM 58.5 °F 28.4 °F 32% 30.05 in 10.0 mi NNW 10.4 mph 17.3 mph N/A   Clear
8:55 PM 57.6 °F 28.2 °F 33% 30.07 in 10.0 mi NNW 10.4 mph 18.4 mph N/A   Clear
9:15 PM 57.2 °F 27.1 °F 32% 30.08 in 10.0 mi NNW 9.2 mph 16.1 mph N/A   Clear
9:35 PM 56.3 °F 26.6 °F 32% 30.09 in 10.0 mi NNW 8.1 mph - N/A   Clear
9:55 PM 55.9 °F 24.8 °F 30% 30.10 in 10.0 mi NNW 10.4 mph - N/A   Clear
10:15 PM 56.3 °F 22.3 °F 27% 30.11 in 10.0 mi NNW 16.1 mph 23.0 mph N/A   Clear
10:35 PM 55.6 °F 21.9 °F 27% 30.12 in 10.0 mi NNW 10.4 mph 18.4 mph N/A   Clear
10:55 PM 55.8 °F 21.9 °F 27% 30.13 in 10.0 mi NNW 17.3 mph 26.5 mph N/A   Clear
11:15 PM 55.4 °F 22.1 °F 27% 30.14 in 10.0 mi NNW 12.7 mph 26.5 mph N/A   Clear
11:35 PM 53.8 °F 22.5 °F 30% 30.15 in 10.0 mi NNW 10.4 mph 18.4 mph N/A   Clear
11:55 PM 52.3 °F 22.6 °F 31% 30.16 in 10.0 mi NNW 9.2 mph - N/A   Clear